Boulder City, NV

12:47 AM PST on February 14, 2016 (GMT -0800)
Boulder City

Weather History for KBVU - June, 2013

Change the Weather History Date:

Wednesday, June 12, 2013

  Actual Average (KLAS) Record (KLAS)
Temperature  
Mean Temperature 89 °F 86 °F  
Max Temperature 105 °F 98 °F 112 °F (1940)
Min Temperature 73 °F 74 °F 52 °F (1937)
Degree Days  
Heating Degree Days 0 0  
Month to date heating degree days 0  
Since 1 June heating degree days 0  
Since 1 July heating degree days 1950  
Cooling Degree Days 24 21  
Month to date cooling degree days 228  
Year to date cooling degree days 778  
Since 1 June cooling degree days 228  
Growing Degree Days 39 (Base 50)    
Moisture  
Dew Point 28 °F    
Average Humidity 12    
Maximum Humidity 27    
Minimum Humidity 6    
Precipitation  
Precipitation 0.00 in 0.00 in 0.01 in (1949)
Month to date precipitation 0.03  
Year to date precipitation 2.04  
Snow  
Snow 0.00 in 0.00 in 0.00 in ()
Month to date snowfall 0.0  
Since 1 June snowfall 0.0  
Since 1 July snowfall 0.3  
Snow Depth -    
Sea Level Pressure  
Sea Level Pressure 29.86 in    
Wind  
Wind Speed 8 mph (SSW)    
Max Wind Speed 26 mph    
Max Gust Speed 38 mph    
Visibility 10 miles    
Events Thunderstorm    
T = Trace of Precipitation, MM = Missing Value Source: NWS Daily Summary

Daily Weather History Graph

Daily Weather History Graph

Search for Another Location

Airport or City:

Trip Planner

Search our weather history database for the weather conditions in past years. The results will help you decide how hot, cold, wet, or windy it might be!

Date:

Astronomy

Jun. 12, 2013 Rise Set
Actual Time 5:22 AM PDT 7:56 PM PDT
Civil Twilight 4:52 AM PDT 8:26 PM PDT
Nautical Twilight 4:14 AM PDT 9:04 PM PDT
Astronomical Twilight 3:33 AM PDT 9:45 PM PDT
Moon 9:00 AM PDT (6/12) 10:41 PM PDT (6/12)
Length of Visible Light 15h 34m
Length of Day
14h 34m
Waxing Crescent, 15% of the Moon is Illuminated
Jun 12
Waxing Crescent
Jun 16
First Quarter
Jun 23
Full
Jun 29
Last Quarter
Jul 8
New

Hourly Weather History & Observations

Time (PDT) Temp. Dew Point Humidity Pressure Visibility Wind Dir Wind Speed Gust Speed Precip Events Conditions
12:15 AM 82.4 °F 28.4 °F 14% 29.88 in 10.0 mi Calm Calm - N/A   Clear
12:35 AM 80.6 °F 32.0 °F 17% 29.89 in 10.0 mi NW 4.6 mph - N/A   Clear
12:55 AM 77.0 °F 37.4 °F 24% 29.88 in 10.0 mi NNW 3.5 mph - N/A   Clear
1:15 AM 80.6 °F 33.8 °F 18% 29.89 in 10.0 mi NW 3.5 mph - N/A   Clear
1:35 AM 77.0 °F 37.4 °F 24% 29.88 in 10.0 mi North 3.5 mph - N/A   Clear
1:55 AM 78.8 °F 35.6 °F 21% 29.88 in 10.0 mi NW 5.8 mph - N/A   Clear
2:15 AM 78.8 °F 30.2 °F 17% 29.88 in 10.0 mi NW 4.6 mph - N/A   Clear
2:35 AM 80.6 °F 26.6 °F 14% 29.88 in 10.0 mi WNW 3.5 mph - N/A   Clear
2:55 AM 78.8 °F 33.8 °F 20% 29.88 in 10.0 mi NW 4.6 mph - N/A   Clear
3:15 AM 77.0 °F 35.6 °F 22% 29.88 in 10.0 mi NW 4.6 mph - N/A   Clear
3:35 AM 75.2 °F 39.2 °F 27% 29.88 in 10.0 mi North 3.5 mph - N/A   Clear
3:55 AM 75.2 °F 37.4 °F 25% 29.88 in 10.0 mi NNW 4.6 mph - N/A   Clear
4:15 AM 75.2 °F 35.6 °F 24% 29.88 in 10.0 mi NNW 4.6 mph - N/A   Clear
4:35 AM 73.4 °F 35.6 °F 25% 29.89 in 10.0 mi NW 3.5 mph - N/A   Clear
4:55 AM 75.2 °F 32.0 °F 21% 29.88 in 10.0 mi NNW 4.6 mph - N/A   Clear
5:15 AM 73.4 °F 32.0 °F 22% 29.89 in 10.0 mi Calm Calm - N/A   Clear
5:35 AM 75.2 °F 32.0 °F 21% 29.89 in 10.0 mi NNW 3.5 mph - N/A   Clear
5:55 AM 77.0 °F 32.0 °F 19% 29.90 in 10.0 mi North 3.5 mph - N/A   Clear
6:15 AM 77.0 °F 32.0 °F 19% 29.90 in 10.0 mi NNW 3.5 mph - N/A   Clear
6:35 AM 80.6 °F 32.0 °F 17% 29.91 in 10.0 mi Calm Calm - N/A   Clear
6:55 AM 84.2 °F 28.4 °F 13% 29.91 in 10.0 mi Calm Calm - N/A Thunderstorm Clear
7:15 AM 84.2 °F 24.8 °F 11% 29.91 in 10.0 mi Calm Calm - N/A   Clear
7:35 AM 86.0 °F 26.6 °F 12% 29.91 in 10.0 mi Calm Calm - N/A   Clear
7:55 AM 87.8 °F 26.6 °F 11% 29.91 in 10.0 mi Calm Calm - N/A   Clear
8:15 AM 89.6 °F 23.0 °F 9% 29.92 in 10.0 mi Calm Calm - N/A   Clear
8:35 AM 91.4 °F 23.0 °F 8% 29.92 in 10.0 mi Calm Calm - N/A   Clear
8:55 AM 91.4 °F 24.8 °F 9% 29.92 in 10.0 mi Calm Calm - N/A   Clear
9:15 AM 93.2 °F 24.8 °F 9% 29.92 in 10.0 mi Calm Calm - N/A   Clear
9:35 AM 95.0 °F 23.0 °F 8% 29.91 in 10.0 mi SE 3.5 mph - N/A   Clear
9:55 AM 96.8 °F 21.2 °F 7% 29.91 in 10.0 mi South 11.5 mph 16.1 mph N/A   Clear
10:15 AM 98.6 °F 19.4 °F 6% 29.91 in 10.0 mi SSE 13.8 mph - N/A   Clear
10:35 AM 98.6 °F 19.4 °F 6% 29.91 in 10.0 mi SE 9.2 mph - N/A   Clear
10:55 AM 100.4 °F 21.2 °F 6% 29.91 in 10.0 mi SSE 17.3 mph 20.7 mph N/A   Clear
11:15 AM 100.4 °F 21.2 °F 6% 29.90 in 10.0 mi SSE 17.3 mph 21.9 mph N/A   Clear
11:35 AM 100.4 °F 23.0 °F 6% 29.89 in 10.0 mi SSE 19.6 mph 25.3 mph N/A   Clear
11:55 AM 102.2 °F 23.0 °F 6% 29.89 in 10.0 mi SE 20.7 mph 27.6 mph N/A   Clear
12:15 PM 102.2 °F 23.0 °F 6% 29.88 in 10.0 mi SE 23.0 mph 31.1 mph N/A Thunderstorm Clear
12:35 PM 104.0 °F 23.0 °F 6% 29.88 in 10.0 mi South 19.6 mph 31.1 mph N/A   Clear
12:55 PM 104.0 °F 23.0 °F 6% 29.87 in 10.0 mi SE 23.0 mph 29.9 mph N/A   Clear
1:15 PM 104.0 °F 24.8 °F 6% 29.86 in 10.0 mi SSE 26.5 mph 34.5 mph N/A   Clear
1:35 PM 104.0 °F 24.8 °F 6% 29.86 in 10.0 mi South 21.9 mph 38.0 mph N/A   Clear
1:55 PM 104.0 °F 28.4 °F 7% 29.85 in 10.0 mi South 23.0 mph 33.4 mph N/A Thunderstorm Clear
2:15 PM 104.0 °F 26.6 °F 7% 29.85 in 10.0 mi South 25.3 mph 33.4 mph N/A   Clear
2:35 PM 104.0 °F 26.6 °F 7% 29.84 in 10.0 mi South 20.7 mph 34.5 mph N/A   Clear
2:55 PM 105.8 °F 26.6 °F 6% 29.83 in 10.0 mi South 25.3 mph 38.0 mph N/A   Clear
3:15 PM 105.8 °F 26.6 °F 6% 29.83 in 10.0 mi South 26.5 mph 34.5 mph N/A   Clear
3:35 PM 104.0 °F 26.6 °F 7% 29.83 in 10.0 mi South 26.5 mph 38.0 mph N/A   Clear
3:55 PM 102.2 °F 24.8 °F 6% 29.83 in 10.0 mi SSW 19.6 mph 29.9 mph N/A   Clear
4:15 PM 102.2 °F 24.8 °F 6% 29.82 in 10.0 mi South 21.9 mph 34.5 mph N/A   Clear
4:35 PM 102.2 °F 26.6 °F 7% 29.82 in 10.0 mi South 25.3 mph 36.8 mph N/A   Clear
4:55 PM 102.2 °F 26.6 °F 7% 29.81 in 10.0 mi South 19.6 mph 28.8 mph N/A   Clear
5:15 PM 102.2 °F 26.6 °F 7% 29.81 in 10.0 mi SSW 26.5 mph 33.4 mph N/A   Clear
5:35 PM 102.2 °F 26.6 °F 7% 29.80 in 10.0 mi South 19.6 mph 28.8 mph N/A   Clear
5:55 PM 102.2 °F 26.6 °F 7% 29.80 in 10.0 mi South 17.3 mph 26.5 mph N/A   Clear
6:15 PM 100.4 °F 26.6 °F 7% 29.80 in 10.0 mi South 17.3 mph 34.5 mph N/A   Clear
6:35 PM 102.2 °F 26.6 °F 7% 29.80 in 10.0 mi South 23.0 mph 32.2 mph N/A   Clear
6:55 PM 100.4 °F 28.4 °F 8% 29.80 in 10.0 mi South 23.0 mph 27.6 mph N/A   Clear
7:15 PM 100.4 °F 28.4 °F 8% 29.79 in 10.0 mi South 21.9 mph 31.1 mph N/A   Clear
7:35 PM 98.6 °F 26.6 °F 8% 29.80 in 10.0 mi South 17.3 mph 24.2 mph N/A   Clear
7:55 PM 98.6 °F 28.4 °F 8% 29.80 in 10.0 mi South 16.1 mph - N/A   Clear
8:15 PM 96.8 °F 26.6 °F 8% 29.80 in 10.0 mi South 17.3 mph 20.7 mph N/A   Clear
8:35 PM 96.8 °F 28.4 °F 9% 29.81 in 10.0 mi South 15.0 mph 19.6 mph N/A   Clear
8:55 PM 95.0 °F 28.4 °F 9% 29.81 in 10.0 mi South 15.0 mph 23.0 mph N/A   Clear
9:15 PM 95.0 °F 28.4 °F 9% 29.82 in 10.0 mi South 17.3 mph - N/A   Clear
9:35 PM 95.0 °F 28.4 °F 9% 29.82 in 10.0 mi SSW 17.3 mph 27.6 mph N/A   Clear
9:55 PM 93.2 °F 28.4 °F 10% 29.82 in 10.0 mi SSW 16.1 mph - N/A   Clear
10:15 PM 91.4 °F 28.4 °F 10% 29.82 in 10.0 mi SSW 11.5 mph - N/A   Clear
10:35 PM 89.6 °F 28.4 °F 11% 29.82 in 10.0 mi SW 12.7 mph - N/A   Clear
10:55 PM 89.6 °F 28.4 °F 11% 29.82 in 10.0 mi SSW 10.4 mph - N/A   Clear
11:15 PM 87.8 °F 30.2 °F 13% 29.83 in 10.0 mi SW 6.9 mph - N/A   Clear
11:35 PM 84.2 °F 28.4 °F 13% 29.83 in 10.0 mi SW 3.5 mph - N/A Thunderstorm Clear
11:55 PM 86.0 °F 28.4 °F 12% 29.84 in 10.0 mi SSW 6.9 mph - N/A   Clear